Location: Chandolas
(44.4033°N, 4.2533°E)
Time: 09:17:06
(UTC+00:00)

Cosmos 2369 - Pass Details

Date: 24 February 2020
Orbit: 841 x 855 km, 71.0° (Epoch: 06 April)

Event Time Altitude Azimuth Distance (km) Brightness Sun altitude
Rises 05:31:16 0° 341° (NNW) 3,421 6.6 -11.2°
Reaches altitude 10° 05:34:09 10° 354° (N) 2,480 6.1 -10.7°
Maximum altitude 05:38:52 26° 51° (NE) 1,612 5.8 -9.8°
Drops below altitude 10° 05:43:32 10° 107° (ESE) 2,461 7.7 -9.0°
Sets 05:46:22 0° 119° (ESE) 3,390 8.2 -8.5°
